Location: Champs
(48.8539°N, 2.6040°E)
Time: 22:58:31
(UTC+00:00)

SPOT 1 Rocket Y - Pass Details

Date: 17 August 2022
Orbit: 784 x 832 km, 98.5° (Epoch: 07 October)

Event Time Altitude Azimuth Distance (km) Brightness Sun altitude
Exits shadow 22:05:38 - 227° (SW) 3,191 8.6 -23.5°
Reaches altitude 10° 22:09:48 10° 262° (W) 2,378 8.3 -23.8°
Maximum altitude 22:11:04 11° 276° (W) 2,328 8.4 -23.9°
Drops below altitude 10° 22:12:20 10° 290° (WNW) 2,390 8.7 -24.0°
Sets 22:16:56 0° 327° (NNW) 3,344 10.2 -24.4°
